SCP
0 0 0 0 0 0 0 0 0 0 0 0 0 0 0 0 0 0 0 0 0 0 0 0 0 -0 -0 -0 0 0 0 0 0 0 0 0 0 0
0 0 0 0 0 0 0 0 0 0 0 0 0 0 0 0 0 0 0 0 0 0 0 -0 0 0 0 -0 -0 -0 0 0 0 0 0 0 0 0
0 0 0 0 0 0 0 0 0 0 0 0 0 0 0 0 0 0 0 0 0 0 0 0 0 -0 -0 -0 -0 -0 -0 0 0 0 0 0 0 0
0 0 0 0 0 0 0 0 0 0 0 0 0 0 0 0 0 0 0 0 0 0 0 0 0 0 0 0 0 0 0 -0 0 0 0 0 0 0
0 0 0 0 0 0 0 0 0 0 0 0 0 0 0 0 0 0 0 0 0 0 0 0 0 0 0 0 0 0 0 -0 0 0 0 0 0 0
0 0 0 0 0 0 0 0 0 0 0 0 0 0 0 0 0 0 0 0 0 0 0 0 0 0 0 0 0 0 0 0 0 0 0 0 0 0
0 0 0 0 0 0 0 0 0 0 0 0 0 0 0 0 0 0 0 0 0 0 0 0 0 0 0 0 0 0 0 0 0 0 0 0 0 0
0 0 0 0 0 0 0 0 0 0 0 0 0 0 0 0 0 0 0 0 0 0 0 0 0 0 0 0 0 0 0 0 0 0 0 0 0 0
0 0 0 0 0 0 0 0 0 0 0 0 0 0 0 0 0 0 0 0 0 0 0 0 0 0 0 0 0 0 0 0 0 0 0 0 0 0
0 0 0 0 0 0 0 0 0 0 0 0 0 0 0 0 0 0 0 0 0 0 0 0 0 0 0 0 0 0 0 0 0 0 0 0 0 0
0 0 0 0 0 0 0 0 0 0 0 0 0 0 0 0 0 0 0 0 0 0 0 0 0 0 0 0 0 0 0 0 0 0 0 0 0 0
0 0 0 0 0 0 0 0 0 0 0 0 0 0 0 0 0 0 0 0 0 -0 0 0 -0 0 0 0 0 0 0 0 0 0 0 0 0 0
0 0 0 0 0 0 0 0 0 0 0 0 0 0 0 0 0 0 0 0 0 0 0 -0 -0 0 0 0 0 0 0 0 0 0 0 0 0 0
0 0 0 0 0 0 0 0 0 0 0 0 0 0 0 0 0 0 0 0 0 0 0 0 0 0 0 0 0 0 0 0 0 0 0 0 0 0
0 0 0 0 0 0 0 0 0 0 0 0 0 0 0 0 0 0 0 0 0 0 0 0 0 0 0 0 0 0 0 0 0 0 0 0 0 0
0 0 0 0 0 0 0 0 0 0 0 0 0 0 0 0 0 0 0 0 -0 0 0 0 0 0 0 0 0 -0 0 0 -0 0 0 0 0 0
0 0 0 0 0 0 0 0 0 0 0 0 0 0 0 0 0 0 0 -0 -0 -0 0 0 0 0 0 -0 0 0 0 0 0 0 0 0 0 0
0 0 0 0 0 0 0 0 0 0 0 0 0 0 0 0 0 -0 -0 -0 -0 0 0 -0 -0 -0 -0 -0 -0 0 -0 -0 -0 0 0 0 0 0
0 0 0 0 0 0 0 0 0 0 0 0 0 0 0 0 -0 -0 -0 -0 0 0 -0 -0 -0 0 -0 -0 -0 -0 0 -0 -0 0 0 0 0 0
0 0 0 0 0 0 0 0 0 0 0 0 0 0 0 -0 -0 -0 -0 0 0 -0 -0 0 -0 0 -0 -0 -0 0 -0 0 0 0 0 0 0 0
0 0 0 0 0 0 0 0 0 0 0 0 0 0 -0 -0 -0 -0 0 0 -0 -0 0 0 -0 -0 -0 -0 0 0 -0 -0 -0 0 0 0 0 0
0 0 0 0 0 0 0 0 0 0 0 0 0 0 0 -0 -0 -0 0 -0 -0 -0 -0 -0 -0 -0 -0 -0 0 -0 -0 0 -0 -0 0 0 0 0
0 0 0 0 0 0 0 0 0 0 0 0 0 0 -0 -0 -0 0 0 -0 -0 -0 -0 -0 -0 -0 -0 -0 -0 0 -0 0 0 -0 0 0 0 0
Wind_Speed_500mb
14 18 8 11 7 9 6 9 15 19 29 12 35 36 46 53 52 45 53 60 61 52 47 52 61 64 66 65 64 50 54 62 61 57 59 63 66 80
8 10 6 9 7 3 5 8 9 17 25 36 41 46 48 52 50 49 56 64 62 56 49 59 68 70 66 71 72 71 56 56 65 67 60 62 66 67
7 7 8 9 6 8 9 10 13 18 34 43 46 51 53 52 56 58 58 63 70 57 50 55 64 70 77 78 78 77 74 60 57 64 72 64 66 71
10 10 11 10 12 9 14 15 16 22 29 45 52 55 55 57 60 62 66 57 58 68 72 69 72 78 83 85 81 75 63 53 59 57 65 75 67 71
8 8 8 10 12 23 21 22 19 24 36 36 50 48 50 55 61 60 63 79 66 61 69 83 84 84 80 80 83 74 61 64 68 72 62 67 75 72
18 18 13 14 21 33 26 40 29 41 41 49 50 51 51 55 56 69 68 82 91 95 96 91 78 85 92 89 81 78 80 77 72 64 63 65 75 81
21 22 17 25 28 33 34 41 42 44 53 53 57 58 58 64 65 61 74 89 104 74 94 96 93 97 95 90 85 83 83 87 85 82 83 82 79 81
25 21 26 34 33 29 39 36 42 52 56 58 61 63 69 63 62 70 83 91 94 80 85 109 85 100 94 90 89 88 91 93 95 93 89 85 84 91
32 25 27 27 32 45 50 46 57 55 58 57 69 66 70 71 70 86 87 82 87 93 89 110 88 107 102 105 105 108 108 105 106 103 96 91 87 90
29 35 38 40 41 47 46 58 61 61 57 68 73 68 71 74 80 78 71 83 88 81 74 96 97 109 110 113 115 117 111 110 107 99 89 86 87 88
38 38 44 47 49 48 52 60 59 70 80 64 53 63 58 45 46 55 65 83 87 91 96 88 101 104 107 123 121 115 110 97 81 68 80 81 80 83
41 47 42 42 48 53 47 56 72 79 53 56 57 49 51 52 50 53 71 74 84 95 97 93 111 108 117 111 98 94 99 93 85 75 75 68 68 74
52 39 37 42 45 47 57 68 70 50 56 61 61 62 62 50 52 62 74 74 83 91 108 102 105 107 101 108 107 110 98 86 70 57 61 70 60 71
53 44 34 44 53 62 64 45 43 52 58 58 60 54 66 61 57 76 89 80 71 92 108 89 93 98 109 117 117 104 90 87 64 38 43 52 40 58
26 23 38 49 55 62 33 42 44 51 48 49 61 64 55 61 73 77 75 70 97 105 96 84 88 94 103 108 115 100 89 61 50 37 32 43 47 55
28 35 40 54 47 34 41 36 34 43 52 55 54 54 61 73 65 72 70 89 109 117 91 83 88 100 105 100 91 83 63 49 21 30 31 33 46 53
42 50 50 27 31 36 36 40 45 45 49 49 50 67 62 63 73 68 74 81 94 105 104 90 92 102 100 80 76 50 36 32 34 35 40 40 34 48
32 32 23 28 36 37 42 43 44 47 48 54 57 51 66 68 68 73 69 79 94 102 99 93 107 115 106 70 43 42 41 42 44 36 33 29 28 31
22 24 25 35 36 38 39 41 43 46 51 51 47 63 60 60 67 69 70 77 103 96 89 91 104 93 90 89 70 49 45 40 30 26 24 32 37 41
25 27 29 36 37 38 39 41 44 50 50 46 56 54 56 59 63 67 69 81 96 90 91 89 101 108 100 96 71 45 22 16 21 26 36 35 35 33
18 29 34 36 38 40 42 44 43 44 43 50 52 51 53 54 63 64 77 94 80 80 89 92 97 95 84 31 22 17 9 13 6 26 39 62 66 64
29 33 35 38 40 42 44 43 40 42 47 50 49 47 45 58 61 66 85 81 74 74 81 80 89 83 83 25 38 45 52 42 22 32 37 51 66 53
32 32 33 36 40 41 42 41 39 43 47 46 41 43 56 64 57 74 80 67 64 70 73 77 85 82 66 19 22 34 34 56 50 40 40 35 39 51
Wind_Direction_500mb
113 124 107 107 45 50 39 4 350 338 329 257 321 320 310 316 322 330 319 322 328 331 333 323 316 314 310 310 309 301 294 293 291 286 278 270 263 251
84 98 80 102 95 43 350 17 323 317 307 302 305 307 313 315 325 324 325 319 324 329 321 311 308 307 310 308 305 307 304 293 289 287 284 275 267 260
75 62 44 27 54 21 9 324 322 316 308 310 313 318 320 324 324 321 323 315 316 313 315 308 304 305 304 304 305 306 306 299 288 284 283 278 271 262
19 16 360 358 28 342 331 329 337 318 311 302 315 318 322 319 318 318 314 311 307 302 306 295 291 295 298 298 299 303 302 292 289 282 279 280 274 265
309 298 303 318 319 325 337 335 328 313 303 314 306 312 311 311 313 313 303 306 315 315 307 306 307 304 302 301 303 301 294 291 294 291 276 274 275 265
286 302 316 320 288 319 326 339 327 326 330 314 311 309 312 313 309 312 312 307 310 310 307 310 306 297 299 298 296 287 286 285 289 287 279 270 265 268
269 290 304 282 309 304 321 326 321 322 324 320 313 311 313 310 318 308 305 303 308 308 309 306 307 302 300 301 300 295 290 290 285 283 279 274 267 263
287 272 274 289 303 298 322 309 311 312 316 316 311 305 305 308 302 302 301 308 308 316 313 308 310 306 305 300 298 298 295 293 291 287 282 273 262 258
298 294 288 288 286 298 297 288 299 295 304 307 305 299 297 300 296 298 305 304 305 310 313 308 310 307 307 307 307 302 297 292 289 285 280 272 262 252
304 306 295 292 290 297 289 293 292 291 296 298 302 297 293 291 293 298 300 306 306 307 305 297 305 300 302 302 302 299 294 292 288 283 275 266 258 248
291 294 292 292 287 285 285 284 291 301 310 311 303 296 298 310 302 293 301 314 305 308 309 302 305 300 299 303 304 303 300 297 290 279 268 253 249 247
286 287 289 285 289 289 288 300 305 308 316 320 323 321 315 313 299 292 311 312 303 303 310 306 308 306 300 302 299 296 295 292 290 276 264 249 238 246
291 286 279 286 292 290 297 299 303 314 315 313 319 323 315 311 301 304 314 312 300 297 306 309 304 305 296 300 300 302 301 299 294 276 254 238 243 235
293 284 273 283 282 285 293 300 304 309 307 313 314 311 311 313 305 312 317 316 299 301 311 311 308 309 302 298 298 307 303 299 297 265 245 245 237 233
288 285 273 274 284 301 305 315 313 307 313 311 306 309 310 310 315 317 314 307 310 316 319 320 319 315 305 297 297 305 302 301 290 274 269 259 252 235
281 274 282 291 304 319 314 318 319 313 312 311 308 311 313 318 315 317 313 315 322 324 325 328 330 331 316 317 309 304 301 276 233 265 300 275 242 229
277 290 301 313 315 311 315 317 317 316 316 313 314 318 319 315 319 318 316 319 320 325 326 331 339 341 331 324 315 292 285 268 285 285 290 278 238 227
297 311 320 319 309 317 318 317 318 318 318 316 322 318 317 319 319 321 319 322 323 326 328 334 339 334 342 345 343 322 293 288 294 287 283 245 237 215
301 322 306 299 311 312 314 316 317 318 316 316 318 320 323 318 323 321 323 324 326 329 331 337 334 329 327 322 334 328 303 300 290 284 245 207 195 195
302 313 306 306 311 313 315 316 316 317 315 313 323 323 322 324 324 325 324 325 328 332 334 337 339 337 327 317 314 318 321 264 288 190 166 160 174 177
297 304 307 312 314 315 314 313 314 317 317 323 323 322 325 327 325 323 320 325 330 333 333 335 344 355 359 28 61 46 5 197 109 160 147 133 129 131
296 301 302 305 311 311 314 314 314 319 322 320 319 322 324 318 326 319 320 329 332 334 334 337 352 6 3 34 52 78 84 104 115 166 169 148 142 134
296 298 302 303 306 310 313 315 314 315 315 318 317 311 313 324 322 314 326 330 333 337 338 341 356 6 4 28 41 32 92 88 91 103 98 134 163 145
Wind_Speed_850mb
14 18 8 11 7 9 6 9 15 19 29 12 35 36 46 53 52 45 53 60 61 52 47 52 61 64 66 65 64 50 54 62 61 57 59 63 66 80
8 10 6 9 7 3 5 8 9 17 25 36 41 46 48 52 50 49 56 64 62 56 49 59 68 70 66 71 72 71 56 56 65 67 60 62 66 67
7 7 8 9 6 8 9 10 13 18 34 43 46 51 53 52 56 58 58 63 70 57 50 55 64 70 77 78 78 77 74 60 57 64 72 64 66 71
10 10 11 10 12 9 14 15 16 22 29 45 52 55 55 57 60 62 66 57 58 68 72 69 72 78 83 85 81 75 63 53 59 57 65 75 67 71
8 8 8 10 12 23 21 22 19 24 36 36 50 48 50 55 61 60 63 79 66 61 69 83 84 84 80 80 83 74 61 64 68 72 62 67 75 72
18 18 13 14 21 33 26 40 29 41 41 49 50 51 51 55 56 69 68 82 91 95 96 91 78 85 92 89 81 78 80 77 72 64 63 65 75 81
21 22 17 25 28 33 34 41 42 44 53 53 57 58 58 64 65 61 74 89 104 74 94 96 93 97 95 90 85 83 83 87 85 82 83 82 79 81
25 21 26 34 33 29 39 36 42 52 56 58 61 63 69 63 62 70 83 91 94 80 85 109 85 100 94 90 89 88 91 93 95 93 89 85 84 91
32 25 27 27 32 45 50 46 57 55 58 57 69 66 70 71 70 86 87 82 87 93 89 110 88 107 102 105 105 108 108 105 106 103 96 91 87 90
29 35 38 40 41 47 46 58 61 61 57 68 73 68 71 74 80 78 71 83 88 81 74 96 97 109 110 113 115 117 111 110 107 99 89 86 87 88
38 38 44 47 49 48 52 60 59 70 80 64 53 63 58 45 46 55 65 83 87 91 96 88 101 104 107 123 121 115 110 97 81 68 80 81 80 83
41 47 42 42 48 53 47 56 72 79 53 56 57 49 51 52 50 53 71 74 84 95 97 93 111 108 117 111 98 94 99 93 85 75 75 68 68 74
52 39 37 42 45 47 57 68 70 50 56 61 61 62 62 50 52 62 74 74 83 91 108 102 105 107 101 108 107 110 98 86 70 57 61 70 60 71
53 44 34 44 53 62 64 45 43 52 58 58 60 54 66 61 57 76 89 80 71 92 108 89 93 98 109 117 117 104 90 87 64 38 43 52 40 58
26 23 38 49 55 62 33 42 44 51 48 49 61 64 55 61 73 77 75 70 97 105 96 84 88 94 103 108 115 100 89 61 50 37 32 43 47 55
28 35 40 54 47 34 41 36 34 43 52 55 54 54 61 73 65 72 70 89 109 117 91 83 88 100 105 100 91 83 63 49 21 30 31 33 46 53
42 50 50 27 31 36 36 40 45 45 49 49 50 67 62 63 73 68 74 81 94 105 104 90 92 102 100 80 76 50 36 32 34 35 40 40 34 48
32 32 23 28 36 37 42 43 44 47 48 54 57 51 66 68 68 73 69 79 94 102 99 93 107 115 106 70 43 42 41 42 44 36 33 29 28 31
22 24 25 35 36 38 39 41 43 46 51 51 47 63 60 60 67 69 70 77 103 96 89 91 104 93 90 89 70 49 45 40 30 26 24 32 37 41
25 27 29 36 37 38 39 41 44 50 50 46 56 54 56 59 63 67 69 81 96 90 91 89 101 108 100 96 71 45 22 16 21 26 36 35 35 33
18 29 34 36 38 40 42 44 43 44 43 50 52 51 53 54 63 64 77 94 80 80 89 92 97 95 84 31 22 17 9 13 6 26 39 62 66 64
29 33 35 38 40 42 44 43 40 42 47 50 49 47 45 58 61 66 85 81 74 74 81 80 89 83 83 25 38 45 52 42 22 32 37 51 66 53
32 32 33 36 40 41 42 41 39 43 47 46 41 43 56 64 57 74 80 67 64 70 73 77 85 82 66 19 22 34 34 56 50 40 40 35 39 51
Wind_Direction_850mb
113 124 107 107 45 50 39 4 350 338 329 257 321 320 310 316 322 330 319 322 328 331 333 323 316 314 310 310 309 301 294 293 291 286 278 270 263 251
84 98 80 102 95 43 350 17 323 317 307 302 305 307 313 315 325 324 325 319 324 329 321 311 308 307 310 308 305 307 304 293 289 287 284 275 267 260
75 62 44 27 54 21 9 324 322 316 308 310 313 318 320 324 324 321 323 315 316 313 315 308 304 305 304 304 305 306 306 299 288 284 283 278 271 262
19 16 360 358 28 342 331 329 337 318 311 302 315 318 322 319 318 318 314 311 307 302 306 295 291 295 298 298 299 303 302 292 289 282 279 280 274 265
309 298 303 318 319 325 337 335 328 313 303 314 306 312 311 311 313 313 303 306 315 315 307 306 307 304 302 301 303 301 294 291 294 291 276 274 275 265
286 302 316 320 288 319 326 339 327 326 330 314 311 309 312 313 309 312 312 307 310 310 307 310 306 297 299 298 296 287 286 285 289 287 279 270 265 268
269 290 304 282 309 304 321 326 321 322 324 320 313 311 313 310 318 308 305 303 308 308 309 306 307 302 300 301 300 295 290 290 285 283 279 274 267 263
287 272 274 289 303 298 322 309 311 312 316 316 311 305 305 308 302 302 301 308 308 316 313 308 310 306 305 300 298 298 295 293 291 287 282 273 262 258
298 294 288 288 286 298 297 288 299 295 304 307 305 299 297 300 296 298 305 304 305 310 313 308 310 307 307 307 307 302 297 292 289 285 280 272 262 252
304 306 295 292 290 297 289 293 292 291 296 298 302 297 293 291 293 298 300 306 306 307 305 297 305 300 302 302 302 299 294 292 288 283 275 266 258 248
291 294 292 292 287 285 285 284 291 301 310 311 303 296 298 310 302 293 301 314 305 308 309 302 305 300 299 303 304 303 300 297 290 279 268 253 249 247
286 287 289 285 289 289 288 300 305 308 316 320 323 321 315 313 299 292 311 312 303 303 310 306 308 306 300 302 299 296 295 292 290 276 264 249 238 246
291 286 279 286 292 290 297 299 303 314 315 313 319 323 315 311 301 304 314 312 300 297 306 309 304 305 296 300 300 302 301 299 294 276 254 238 243 235
293 284 273 283 282 285 293 300 304 309 307 313 314 311 311 313 305 312 317 316 299 301 311 311 308 309 302 298 298 307 303 299 297 265 245 245 237 233
288 285 273 274 284 301 305 315 313 307 313 311 306 309 310 310 315 317 314 307 310 316 319 320 319 315 305 297 297 305 302 301 290 274 269 259 252 235
281 274 282 291 304 319 314 318 319 313 312 311 308 311 313 318 315 317 313 315 322 324 325 328 330 331 316 317 309 304 301 276 233 265 300 275 242 229
277 290 301 313 315 311 315 317 317 316 316 313 314 318 319 315 319 318 316 319 320 325 326 331 339 341 331 324 315 292 285 268 285 285 290 278 238 227
297 311 320 319 309 317 318 317 318 318 318 316 322 318 317 319 319 321 319 322 323 326 328 334 339 334 342 345 343 322 293 288 294 287 283 245 237 215
301 322 306 299 311 312 314 316 317 318 316 316 318 320 323 318 323 321 323 324 326 329 331 337 334 329 327 322 334 328 303 300 290 284 245 207 195 195
302 313 306 306 311 313 315 316 316 317 315 313 323 323 322 324 324 325 324 325 328 332 334 337 339 337 327 317 314 318 321 264 288 190 166 160 174 177
297 304 307 312 314 315 314 313 314 317 317 323 323 322 325 327 325 323 320 325 330 333 333 335 344 355 359 28 61 46 5 197 109 160 147 133 129 131
296 301 302 305 311 311 314 314 314 319 322 320 319 322 324 318 326 319 320 329 332 334 334 337 352 6 3 34 52 78 84 104 115 166 169 148 142 134
296 298 302 303 306 310 313 315 314 315 315 318 317 311 313 324 322 314 326 330 333 337 338 341 356 6 4 28 41 32 92 88 91 103 98 134 163 145